Location: Kile Knob Observatory
(38.6083°N, 79.4792°W)
Time: 11:52:18
(UTC-05:00)

AO-7 - Visible Passes

Search period start: 08 December 2019 00:00
Search period end: 18 December 2019 00:00
Orbit: 1439 x 1459 km, 101.8° (Epoch: 07 December)

Date Brightness Start Highest point End Pass type
(mag) Time Alt. Az. Time Alt. Az. Time Alt. Az.
08 Dec ? 02:55:31 10° NE 03:02:34 29° E 03:03:19 29° ESE visible
08 Dec ? 04:47:31 10° N 04:55:39 59° WNW 04:58:13 44° WSW visible
08 Dec ? 06:43:34 10° NNW 06:46:38 13° NW 06:49:44 10° WNW visible
09 Dec ? 03:47:32 10° NNE 03:55:51 64° ESE 03:56:55 59° SE visible
09 Dec ? 05:41:10 10° N 05:47:59 29° WNW 05:51:48 21° W visible
10 Dec ? 02:48:45 10° NE 02:55:29 26° E 02:55:38 26° E visible
10 Dec ? 04:40:27 10° N 04:48:41 65° WNW 04:50:32 53° WSW visible
10 Dec ? 06:36:01 10° NNW 06:39:49 14° NW 06:43:38 10° WNW visible
11 Dec ? 03:40:35 10° NNE 03:48:49 58° ESE 03:49:16 57° ESE visible
11 Dec ? 05:34:01 10° N 05:41:05 32° WNW 05:44:10 25° W visible
12 Dec ? 02:42:01 10° NE 02:56:49 - SSE 02:48:01 23° E visible
12 Dec ? 04:33:24 10° NNE 04:41:42 71° WNW 04:42:54 63° WSW visible
12 Dec ? 06:28:35 10° NNW 06:32:59 16° NW 06:37:24 10° W visible
13 Dec ? 03:33:39 10° NNE 03:50:53 - S 03:41:41 52° E visible
13 Dec ? 05:26:53 10° N 05:34:10 35° WNW 05:36:35 30° W visible
14 Dec ? 02:35:21 10° NE 02:50:01 - SSE 02:40:27 21° E visible
14 Dec ? 04:26:22 10° NNE 04:34:44 78° WNW 04:35:22 74° WSW visible
14 Dec ? 06:21:15 10° NNW 06:26:09 17° NW 06:30:15 12° W visible
15 Dec ? 03:26:44 10° NNE 03:44:04 - S 03:34:09 47° E visible
15 Dec ? 05:19:45 10° N 05:27:15 39° WNW 05:29:03 35° W visible
16 Dec ? 02:28:45 10° NE 02:43:11 - SSE 02:32:57 18° E visible
16 Dec ? 04:19:21 10° NNE 04:27:45 85° WNW 04:27:51 84° W visible
16 Dec ? 06:13:57 10° N 06:19:18 19° NW 06:22:45 15° W visible
17 Dec ? 03:19:50 10° NNE 03:37:14 - S 03:26:39 41° E visible
17 Dec ? 05:12:39 10° N 05:20:19 43° WNW 05:21:34 40° W visible
